Regional Weather Roundup
Issued by NWS Green Bay, WI

Home | Current Version | Previous Version | Text Only | Print | Product List | Glossary On
Versions: 1 2 3 4 5 6 7 8 9 10 11 12 13 14 15 16 17 18 19 20 21 22 23 24 25 26 27 28 29 30 31 32 33 34 35 36 37 38 39 40 41 42 43 44 45 46 47 48 49 50
179
ASUS43 KGRB 212001
RWRGRB

NORTH-CENTRAL AND NORTHEAST WISCONSIN REGIONAL WEATHER ROUNDUP
NATIONAL WEATHER SERVICE GREEN BAY WI
300 PM CDT SAT OCT 21 2017

WIZ005-009-010>012-018-019-212100-
NORTH CENTRAL WISCONSIN

CITY           SKY/WX    TMP DP  RH WIND       PRES   REMARKS
IRONWOOD       CLOUDY    65  57  75 S12G21    29.74S
MANITOWISH WTR NOT AVBL
ARBOR VITAE    NOT AVBL
EAGLE RIVER    NOT AVBL
LAND O LAKES   NOT AVBL
RHINELANDER    CLOUDY    66  57  72 S8        29.84F
PHILLIPS       NOT AVBL
ANTIGO         NOT AVBL
TOMAHAWK       NOT AVBL
MERRILL        NOT AVBL
$$

WIZ013-073-212100-
NORTHEAST WISCONSIN

CITY           SKY/WX    TMP DP  RH WIND       PRES   REMARKS
IRON MOUNTAIN  MOSUNNY   73  53  49 SE14      29.84F
MARINETTE      SUNNY     65  54  67 S15G21    29.90
$$

WIZ017-030-035>037-045-212100-
CENTRAL WISCONSIN

CITY           SKY/WX    TMP DP  RH WIND       PRES   REMARKS
MEDFORD        NOT AVBL
WAUSAU         CLOUDY    69  57  65 SW7       29.84R
MOSINEE        PTSUNNY   70  57  64 S13       29.87R
MARSHFIELD     CLOUDY    68  56  65 SW8       29.84S
WISC RAPIDS    CLOUDY    74  58  57 S12       29.85F
STEVENS POINT  NOT AVBL
WAUPACA        NOT AVBL
SHAWANO        NOT AVBL
CLINTONVILLE   NOT AVBL
WAUTOMA        MOSUNNY  N/A N/A N/A S17G24    29.86F
$$

WIZ038-039-048-051-212100-
FOX VALLEY

CITY           SKY/WX    TMP DP  RH WIND       PRES   REMARKS
NWS GREEN BAY  SUNNY     76  56  49 S16       29.89F
APPLETON       MOSUNNY   73  52  46 S16       29.98
OSHKOSH        SUNNY     75  57  53 S17G24    29.88F
FOND DU LAC    SUNNY     77  54  44 S13G21    29.89F
$$

WIZ022-050-052-212100-
EAST CENTRAL WISCONSIN

CITY           SKY/WX    TMP DP  RH WIND       PRES   REMARKS
EPHRAIM        NOT AVBL
WASHINGTON ISL NOT AVBL
STURGEON BAY   SUNNY     63  54  72 S21G28    29.93S
MANITOWOC      SUNNY     62  53  72 S21G30    29.95S
SHEBOYGAN      SUNNY     66  56  70 S15G23    29.94F
$$

LMZ563-521-522-541>543-212100-
LAKESHORE

STATION/POSITION TIME  TEMP    WIND        PRES    VSBY  WAVE
                       AIR SEA DIR/SP/G                  HT/PER
                 (UTC) (F)     (DEG/KT/KT) (MB)    (MI)  (FT/S)
SHEBOYGAN LKSHOR 1900   55     180/ 19/ 20 1014.1F
KEWAUNEE LKSHORE 1930   53     180/ 11/ 13 1013.2F
NORTHPORT PIER   1940   61     160/ 13/ 19 1013.5F
N MID LAKE BUOY  1850   61 58  180/ 21/ 25 1015.0F         6/ 6
S GREEN BAY BUOY 1900   64 59  140/  8/  8 1012.5
SISTER BAY LKSHO 1919   66     160/ 20/ 27   N/A
MENOMINEE LKSHOR 1930   60     150/ 14/ 16 1012.3F
$$




USA.gov is the U.S. government's official web portal to all federal, state and local government web resources and services.